STARLINK-3184, 51143

Orbit data source: Space-Track

STARLINK-3184, 51143 is a payload satellite owned by SpaceX/Seattle (US) in LEO that was launched on Wed, 19 Jan 2022 UTC via an FALCON 9 launch vehicle from the Air Force Eastern Test Range (AFETR). Payload-class satellites include a variety of spacecraft equipped with specific instruments for various scientific and technological missions. These include communications satellites like Starlink; space stations such as the ISS; scientific satellites like the Hubble; Earth observation satellites from companies like Planet Labs, Umbra, and HawkEye 360; GPS; miniature CubeSats for education and research; and military/defense satellites.

Loading next visibility...
Identifier
51143, 2022-005AR
Orbit
LEO
Country
Flag of USUS
Related business
Manufacturer
SpaceX/Seattle
Mission
Operational Commercial Communications
Bus & Motor
STARLINK, Unknown motor
Mass
297 kg wet, ~275 kg dry
Launch date (UTC)
2022-01-19 (4 years ago)
Launch vehicle
FALCON 9
Launch site
Air Force Eastern Test Range (AFETR)
Object type
Payload
Rocket body
Debris
Shape & HBR
Box + 1 Pan, 10.1 m
Radar Cross Section
13.562 m², Large (>1 m²)

Expand to show TLE details & history
Last TLE update: 2 days ago

TLE from 2 days ago
0 STARLINK-3184
1 51143U 22005AR  26171.41668980  .00031432  00000-0  15134-2 0  9991
2 51143  53.1593 207.6642 0000978  40.0238  13.1222 15.18513362  5775
Epoch: 2026-06-20T10:00Z
TLE epoch observation values (Epoch: 2026-06-20T10:00:01.998Z)
Latitude
39.95002°
Longitude
-172.36035°
Altitude
513.257 km
Speed
7.613 km/s
True Right ascension
16h 25m 07s
True Declination
39° 46' 29"
Sunlit
Object was in full shadow at epoch
Visualization orbit readout
Latitude
Unknown
Longitude
Unknown
Altitude
Unknown
Speed
Unknown
Apparent Right ascension
Unknown
Apparent Declination
Unknown
Sunlit
N/A
Visualization observer readout
Local Sidereal Time
23:19:29
Azimuth
Unknown
Elevation
Unknown
Doppler factor
Unknown
Orbital elements
Apogee altitude
511.262 km
Perigee altitude
509.914 km
Semi-major axis
6,888.725 km
Eccentricity
0.0001
Inclination
53.1593°
RAAN
207.6642°
Arg. of periapsis
40.0238°
True anomaly
13.12474°
Mean anomaly
13.1222°
Eccentric anomaly
13.12347°
Mean motion
3.79608 °/min
Orbital period
94.83 mins
BSTAR
0.0015134
Loading maneuver chart data...
Computing Atmospheric mass density...
Loading historical data...
Loading historical data...
Loading historical data...
Loading historical data...
Loading historical data...
Loading historical data...
Loading historical data...

Documentation

Showing up to 5 results
|